Retour au catalogue

STARLINK-30178

ActifCommunicationsVLEO
NORAD 57447·PAYLOAD·🇺🇸 United States

Lancé Jul 24, 2023 depuis Cape Canaveral Space Force Station

Loading…

Prochains Passages (prochaines 24 heures)

TLE

FraisSource: CelesTrak SupGP

Époque: Sep 14, 2026, 22:17 UTC

1 57447C 23105T   26257.92895833  .00032414  00000+0  11745-2 0  2577
2 57447  43.0001 271.3113 0001430 265.1869  11.6803 15.27548773    19

Suivez STARLINK-30178 en temps réel avec AllMySat

Download on the App Store